Weather History for KCVO - April, 2014

Change the Weather History Date:

Monday, April 14, 2014

  Actual Average Record
Temperature  
Mean Temperature 52 °F -  
Max Temperature 69 °F 59 °F 71 °F (1999)
Min Temperature 35 °F 40 °F 32 °F (2001)
Degree Days  
Heating Degree Days 13    
Growing Degree Days 2 (Base 50)    
Moisture  
Dew Point 40 °F    
Average Humidity 68    
Maximum Humidity 93    
Minimum Humidity 34    
Precipitation  
Precipitation 0.00 in - - ()
Sea Level Pressure  
Sea Level Pressure 30.15 in    
Wind  
Wind Speed 4 mph (WNW)    
Max Wind Speed 17 mph    
Max Gust Speed 22 mph    
Visibility 10 miles    
Events      
Averages and records for this station are not official NWS values.
T = Trace of Precipitation, MM = Missing Value Source: NWS Daily Summary

Daily Weather History Graph

Daily Weather History Graph

Search for Another Location

Airport or City:

Trip Planner

Search our weather history database for the weather conditions in past years. The results will help you decide how hot, cold, wet, or windy it might be!

Date:

Astronomy

Apr. 14, 2014 Rise Set
Actual Time 6:30 AM PDT 7:56 PM PDT
Civil Twilight 6:00 AM PDT 8:27 PM PDT
Nautical Twilight 5:23 AM PDT 9:03 PM PDT
Astronomical Twilight 4:45 AM PDT 9:43 PM PDT
Moon 7:41 PM PDT (4/14) 6:07 AM PDT (4/14)
Length of Visible Light 14h 26m
Length of Day
13h 26m
Full, 100% of the Moon is Illuminated
Apr 14
Full
Apr 15
Full
Apr 22
Last Quarter
Apr 28
New
May 6
First Quarter

Hourly Weather History & Observations

Time (PDT) Temp. Windchill Dew Point Humidity Pressure Visibility Wind Dir Wind Speed Gust Speed Precip Events Conditions
12:15 AM 48.2 °F - 37.4 °F 66% 30.11 in 10.0 mi NW 5.8 mph - N/A   Clear
12:35 AM 48.2 °F - 35.6 °F 62% 30.11 in 10.0 mi NW 3.5 mph - N/A   Clear
12:55 AM 46.4 °F - 35.6 °F 66% 30.11 in 10.0 mi Calm Calm - N/A   Clear
1:15 AM 44.6 °F - 37.4 °F 76% 30.11 in 10.0 mi Calm Calm - N/A   Clear
1:35 AM 42.8 °F - 37.4 °F 81% 30.10 in 10.0 mi Calm Calm - N/A   Clear
1:55 AM 42.8 °F - 37.4 °F 81% 30.10 in 10.0 mi Calm Calm - N/A   Clear
2:15 AM 42.8 °F 41.1 °F 37.4 °F 81% 30.10 in 10.0 mi WSW 3.5 mph - N/A   Clear
2:35 AM 41.0 °F - 37.4 °F 87% 30.10 in 10.0 mi Calm Calm - N/A   Clear
2:55 AM 41.0 °F - 37.4 °F 87% 30.09 in 10.0 mi Calm Calm - N/A   Clear
3:15 AM 41.0 °F - 35.6 °F 81% 30.09 in 10.0 mi Calm Calm - N/A   Clear
3:35 AM 39.2 °F 37.0 °F 35.6 °F 87% 30.09 in 10.0 mi WSW 3.5 mph - N/A   Clear
3:55 AM 39.2 °F - 35.6 °F 87% 30.09 in 10.0 mi Calm Calm - N/A   Clear
4:15 AM 39.2 °F 37.0 °F 35.6 °F 87% 30.09 in 10.0 mi West 3.5 mph - N/A   Clear
4:35 AM 37.4 °F - 33.8 °F 87% 30.10 in 10.0 mi Calm Calm - N/A   Clear
4:55 AM 37.4 °F - 33.8 °F 87% 30.10 in 10.0 mi Calm Calm - N/A   Clear
5:15 AM 37.4 °F - 33.8 °F 87% 30.10 in 10.0 mi Calm Calm - N/A   Clear
5:35 AM 37.4 °F - 33.8 °F 87% 30.10 in 10.0 mi Calm Calm - N/A   Clear
5:55 AM 37.4 °F - 35.6 °F 93% 30.11 in 10.0 mi Calm Calm - N/A   Clear
6:15 AM 37.4 °F 34.9 °F 33.8 °F 87% 30.12 in 10.0 mi WSW 3.5 mph - N/A   Clear
6:35 AM 35.6 °F - 33.8 °F 93% 30.12 in 10.0 mi Calm Calm - N/A   Clear
6:55 AM 37.4 °F - 33.8 °F 87% 30.13 in 10.0 mi Calm Calm - N/A   Clear
7:15 AM 37.4 °F - 35.6 °F 93% 30.13 in 10.0 mi Calm Calm - N/A   Clear
7:35 AM 39.2 °F - 37.4 °F 93% 30.13 in 10.0 mi Calm Calm - N/A   Clear
7:55 AM 42.8 °F - 39.2 °F 87% 30.14 in 10.0 mi Calm Calm - N/A   Clear
8:15 AM 44.6 °F - 37.4 °F 76% 30.15 in 10.0 mi Calm Calm - N/A   Clear
8:35 AM 44.6 °F - 39.2 °F 81% 30.15 in 10.0 mi Calm Calm - N/A   Clear
8:55 AM 48.2 °F - 39.2 °F 71% 30.16 in 10.0 mi Calm Calm - N/A   Clear
9:15 AM 50.0 °F - 39.2 °F 66% 30.16 in 10.0 mi Calm Calm - N/A   Clear
9:35 AM 53.6 °F - 41.0 °F 62% 30.16 in 10.0 mi Calm Calm - N/A   Clear
9:55 AM 53.6 °F - 41.0 °F 62% 30.16 in 10.0 mi Calm Calm - N/A   Clear
10:15 AM 55.4 °F - 41.0 °F 58% 30.16 in 10.0 mi Calm Calm - N/A   Clear
10:35 AM 57.2 °F - 41.0 °F 55% 30.16 in 10.0 mi South 4.6 mph - N/A   Clear
10:55 AM 60.8 °F - 42.8 °F 52% 30.16 in 10.0 mi SSE 4.6 mph - N/A   Clear
11:15 AM 62.6 °F - 35.6 °F 37% 30.16 in 10.0 mi SE 3.5 mph - N/A   Clear
11:35 AM 62.6 °F - 39.2 °F 42% 30.17 in 10.0 mi Calm Calm - N/A   Clear
11:55 AM 64.4 °F - 41.0 °F 42% 30.17 in 10.0 mi Calm Calm - N/A   Clear
12:15 PM 64.4 °F - 35.6 °F 34% 30.16 in 10.0 mi SSE 5.8 mph - N/A   Clear
12:35 PM 66.2 °F - 41.0 °F 40% 30.16 in 10.0 mi Calm Calm - N/A   Clear
12:55 PM 68.0 °F - 42.8 °F 40% 30.16 in 10.0 mi South 4.6 mph - N/A   Clear
1:15 PM 68.0 °F - 44.6 °F 43% 30.15 in 10.0 mi SSE 4.6 mph - N/A   Clear
1:35 PM 69.8 °F - 44.6 °F 40% 30.15 in 10.0 mi SSE 3.5 mph - N/A   Clear
1:55 PM 69.8 °F - 42.8 °F 38% 30.15 in 10.0 mi WNW 4.6 mph - N/A   Clear
2:15 PM 68.0 °F - 44.6 °F 43% 30.15 in 10.0 mi NNW 11.5 mph - N/A   Clear
2:35 PM 69.8 °F - 46.4 °F 43% 30.15 in 10.0 mi NW 12.7 mph 16.1 mph N/A   Clear
2:55 PM 68.0 °F - 48.2 °F 49% 30.15 in 10.0 mi NW 13.8 mph 19.6 mph N/A   Clear
3:15 PM 68.0 °F - 46.4 °F 46% 30.14 in 10.0 mi NW 13.8 mph 19.6 mph N/A   Clear
3:35 PM 66.2 °F - 46.4 °F 49% 30.15 in 10.0 mi WNW 16.1 mph 21.9 mph N/A   Clear
3:55 PM 66.2 °F - 46.4 °F 49% 30.14 in 10.0 mi WNW 17.3 mph - N/A   Clear
4:15 PM 66.2 °F - 44.6 °F 46% 30.15 in 10.0 mi WNW 15.0 mph 18.4 mph N/A   Clear
4:35 PM 64.4 °F - 42.8 °F 45% 30.15 in 10.0 mi WNW 16.1 mph - N/A   Clear
4:55 PM 64.4 °F - 44.6 °F 49% 30.14 in 10.0 mi WNW 12.7 mph 18.4 mph N/A   Clear
5:15 PM 64.4 °F - 42.8 °F 45% 30.14 in 10.0 mi WNW 13.8 mph 19.6 mph N/A   Clear
5:35 PM 62.6 °F - 42.8 °F 48% 30.14 in 10.0 mi NW 15.0 mph - N/A   Clear
5:55 PM 60.8 °F - 44.6 °F 55% 30.14 in 10.0 mi WNW 12.7 mph - N/A   Clear
6:15 PM 57.2 °F - 42.8 °F 59% 30.14 in 10.0 mi WNW 15.0 mph 19.6 mph N/A   Clear
6:35 PM 55.4 °F - 42.8 °F 63% 30.15 in 10.0 mi WNW 13.8 mph 20.7 mph N/A   Clear
6:55 PM 55.4 °F - 42.8 °F 63% 30.15 in 10.0 mi WNW 13.8 mph - N/A   Clear
7:15 PM 53.6 °F - 42.8 °F 67% 30.15 in 10.0 mi WNW 12.7 mph - N/A   Clear
7:35 PM 51.8 °F - 42.8 °F 71% 30.16 in 10.0 mi WNW 15.0 mph - N/A   Clear
7:55 PM 51.8 °F - 42.8 °F 71% 30.17 in 10.0 mi WNW 16.1 mph 21.9 mph N/A   Clear
8:15 PM 50.0 °F - 42.8 °F 76% 30.17 in 10.0 mi WNW 11.5 mph 19.6 mph N/A   Clear
8:35 PM 50.0 °F - 42.8 °F 76% 30.19 in 10.0 mi WNW 16.1 mph 20.7 mph N/A   Clear
8:55 PM 50.0 °F - 42.8 °F 76% 30.20 in 10.0 mi WNW 10.4 mph 17.3 mph N/A   Clear
9:15 PM 48.2 °F - 42.8 °F 82% 30.21 in 10.0 mi WNW 9.2 mph - N/A   Clear
9:35 PM 48.2 °F - 42.8 °F 82% 30.21 in 10.0 mi WNW 10.4 mph - N/A   Clear
9:55 PM 48.2 °F - 42.8 °F 82% 30.22 in 10.0 mi NW 8.1 mph - N/A   Clear
10:15 PM 48.2 °F - 42.8 °F 82% 30.22 in 10.0 mi WNW 6.9 mph - N/A   Clear
10:35 PM 48.2 °F - 42.8 °F 82% 30.22 in 10.0 mi NW 9.2 mph - N/A   Clear
10:55 PM 48.2 °F - 42.8 °F 82% 30.23 in 10.0 mi NW 5.8 mph - N/A   Clear
11:15 PM 48.2 °F - 42.8 °F 82% 30.23 in 10.0 mi NNW 4.6 mph - N/A   Clear
11:35 PM 46.4 °F 42.9 °F 42.8 °F 87% 30.25 in 10.0 mi NW 6.9 mph - N/A   Clear
11:55 PM 46.4 °F 42.4 °F 41.0 °F 81% 30.25 in 10.0 mi WNW 8.1 mph - N/A   Clear